EW9000 Weather Reports


Display with metric or nautical units.
time (UTC)temp
F
wind
direction
speed
MPH
gust
MPH
rain 1hr
in
rain 24hr
in
rain mn
in
humidity
%
barometer
mb
20180220114529 42 0.0 0.0 0.00 1.56 0.04 93 1010.8
20180220113522 42 283 0.0 2.0 0.00 1.56 0.04 93 1010.7
20180220112523 43 341 0.0 2.0 0.00 1.56 0.04 93 1010.7
20180220111527 43 274 1.0 3.0 0.00 1.56 0.04 93 1010.8
20180220110529 44 272 1.0 2.0 0.00 1.56 0.04 93 1010.6
20180220105528 44 265 1.0 2.0 0.00 1.56 0.04 93 1010.3
20180220104515 44 248 1.0 2.0 0.00 1.56 0.04 93 1010.5
20180220103522 44 273 1.0 3.0 0.00 1.56 0.04 93 1010.4
20180220102522 44 353 2.0 5.0 0.00 1.56 0.04 93 1010.1
20180220101543 43 352 0.0 2.0 0.00 1.56 0.04 93 1009.5
20180220100522 43 266 1.0 2.0 0.00 1.56 0.04 93 1009.5
20180220095518 43 188 1.0 2.0 0.00 1.56 0.04 93 1009.4
20180220094530 43 112 0.0 1.0 0.00 1.56 0.04 93 1009.5
20180220093532 43 159 1.0 3.0 0.00 1.57 0.04 93 1009.5
20180220092528 43 143 1.0 3.0 0.00 1.57 0.04 93 1009.5
20180220091522 43 67 0.0 2.0 0.00 1.59 0.04 93 1009.6
20180220090516 43 0.0 1.0 0.00 1.59 0.04 93 1009.9
20180220085549 43 17 0.0 2.0 0.00 1.59 0.04 93 1010.1
20180220084532 43 0.0 1.0 0.00 1.60 0.04 93 1010.1
20180220083516 44 306 1.0 2.0 0.00 1.64 0.04 93 1010.5
20180220082529 44 270 2.0 4.0 0.00 1.64 0.04 93 1010.5
20180220081517 43 279 3.0 8.0 0.00 1.72 0.04 93 1009.7
20180220080515 43 202 0.0 1.0 0.00 1.73 0.04 93 1009.4
20180220075528 43 135 1.0 2.0 0.00 1.74 0.04 93 1009.5
20180220074525 43 177 1.0 2.0 0.00 1.74 0.04 93 1009.3
20180220073521 43 189 0.0 2.0 0.00 1.74 0.04 93 1009.4
20180220072516 42 191 0.0 2.0 0.00 1.74 0.04 93 1009.4
20180220071533 42 154 1.0 3.0 0.00 1.74 0.04 93 1009.5
20180220070532 42 152 1.0 3.0 0.00 1.74 0.04 93 1010.0
20180220065526 42 166 1.0 2.0 0.04 1.74 0.04 93 1010.5
20180220064520 41 205 2.0 4.0 0.09 1.74 0.04 93 1010.8
20180220063515 41 15 2.0 3.0 0.10 1.74 0.04 93 1010.8
20180220062533 41 134 2.0 4.0 0.14 1.74 0.04 93 1010.9
20180220061531 41 10 2.0 4.0 0.35 1.74 0.04 93 1011.0
20180220060527 41 49 1.0 2.0 0.42 1.74 0.04 93 1010.8
20180220055520 40 10 1.0 2.0 0.41 1.69 1.69 92 1011.1
20180220054522 40 1 1.0 2.0 0.41 1.65 1.65 92 1010.6
20180220053533 40 333 1.0 3.0 0.54 1.63 1.63 92 1010.8
20180220052526 40 8 3.0 4.0 0.54 1.59 1.59 92 1010.9
20180220051517 41 48 1.0 2.0 0.39 1.38 1.38 92 1010.8
20180220050532 41 17 1.0 3.0 0.33 1.32 1.32 92 1011.5
20180220045524 41 26 1.0 3.0 0.28 1.27 1.27 92 1011.1
20180220044518 41 280 1.0 3.0 0.25 1.23 1.23 92 1010.8
20180220043519 41 357 1.0 2.0 0.12 1.09 1.09 92 1011.1
20180220042555 41 306 1.0 3.0 0.27 1.05 1.05 91 1011.4
20180220041524 41 301 0.0 1.0 0.21 0.99 0.99 91 1011.0
20180220040532 42 279 0.0 2.0 0.21 0.99 0.99 91 1011.1
20180220035531 42 253 1.0 2.0 0.23 0.99 0.99 91 1011.0
20180220034527 42 282 0.0 2.0 0.24 0.97 0.97 91 1011.0
20180220033518 42 281 2.0 3.0 0.24 0.96 0.96 91 1011.0
20180220032522 42 282 1.0 2.0 0.07 0.77 0.77 91 1011.0
20180220031525 42 237 0.0 2.0 0.07 0.77 0.77 91 1011.0
20180220030520 42 278 1.0 4.0 0.08 0.77 0.77 91 1011.0
20180220025526 43 291 1.0 3.0 0.08 0.75 0.75 90 1010.8
20180220024526 43 341 1.0 3.0 0.09 0.72 0.72 90 1011.0
20180220023523 43 259 2.0 2.0 0.09 0.72 0.72 90 1010.8
20180220022518 43 252 3.0 4.0 0.07 0.70 0.70 90 1010.6
20180220021516 44 300 3.0 6.0 0.09 0.70 0.70 90 1010.6
20180220020526 44 269 2.0 5.0 0.08 0.69 0.69 90 1010.0
20180220015520 45 249 3.0 5.0 0.06 0.67 0.67 89 1010.0
20180220014516 46 269 2.0 3.0 0.02 0.63 0.63 89 1010.3
20180220013531 47 58 4.0 6.0 0.01 0.63 0.63 89 1010.1
20180220012525 47 255 3.0 5.0 0.03 0.63 0.63 89 1009.8
20180220011519 48 258 4.0 7.0 0.04 0.61 0.61 89 1009.5
20180220010526 49 255 3.0 5.0 0.04 0.61 0.61 89 1009.6
20180220005521 49 302 2.0 4.0 0.06 0.61 0.61 88 1009.2
20180220004526 50 243 2.0 4.0 0.07 0.61 0.61 88 1009.4
20180220003527 52 343 4.0 7.0 0.09 0.61 0.61 88 1008.9
20180220002515 59 223 6.0 12.0 0.10 0.60 0.60 91 1008.7
20180220001516 60 270 0.0 1.0 0.14 0.57 0.57 91 1008.2
20180220000531 60 297 0.0 1.0 0.19 0.57 0.57 91 1008.1
20180219235524 60 267 1.0 2.0 0.18 0.55 0.55 91 1008.3
20180219234518 60 200 1.0 2.0 0.18 0.54 0.54 91 1008.4
20180219233525 60 218 1.0 3.0 0.18 0.51 0.51 91 1008.4
20180219232519 60 228 1.0 3.0 0.16 0.49 0.49 91 1008.4
20180219231530 60 275 1.0 2.0 0.09 0.42 0.42 90 1008.5
20180219230521 60 256 2.0 4.0 0.04 0.37 0.37 90 1008.2
20180219225520 60 229 1.0 4.0 0.03 0.36 0.36 90 1008.3
20180219224531 60 225 1.0 4.0 0.04 0.36 0.36 90 1008.2
20180219223529 60 242 2.0 6.0 0.01 0.33 0.33 89 1008.3
20180219222522 60 275 2.0 4.0 0.01 0.33 0.33 89 1008.4
20180219221518 60 202 2.0 4.0 0.02 0.33 0.33 88 1008.4
20180219220529 60 231 2.0 5.0 0.02 0.33 0.33 88 1008.5
20180219215523 60 243 3.0 7.0 0.02 0.33 0.33 88 1008.6
20180219214517 60 262 3.0 5.0 0.01 0.31 0.31 87 1008.5
20180219213530 61 257 3.0 7.0 0.01 0.31 0.31 87 1008.5
20180219212533 61 221 4.0 7.0 0.01 0.31 0.31 87 1008.4
20180219211528 61 250 6.0 10.0 0.00 0.30 0.30 87 1008.2
20180219210600 61 244 5.0 10.0 0.00 0.30 0.30 87 1007.9
20180219205524 61 237 6.0 15.0 0.02 0.30 0.30 87 1007.9
20180219204519 61 223 4.0 7.0 0.01 0.30 0.30 87 1007.2
20180219203522 61 183 6.0 12.0 0.03 0.30 0.30 87 1007.7
20180219202523 61 207 5.0 9.0 0.06 0.30 0.30 87 1008.2
20180219201515 61 251 5.0 8.0 0.12 0.30 0.30 88 1008.3
20180219200532 60 121 4.0 7.0 0.12 0.30 0.30 87 1007.8
20180219195526 60 186 5.0 8.0 0.10 0.28 0.28 87 1008.1
20180219194520 60 234 5.0 12.0 0.10 0.28 0.28 87 1007.9
20180219193519 60 241 4.0 6.0 0.09 0.27 0.27 87 1008.2
20180219192520 61 55 4.0 9.0 0.06 0.24 0.24 86 1008.5
20180219191519 61 328 3.0 6.0 0.00 0.18 0.18 83 1008.6
20180219190531 62 237 3.0 5.0 0.00 0.18 0.18 81 1008.6
20180219185525 63 74 3.0 8.0 0.00 0.18 0.18 79 1008.6
20180219184521 63 232 4.0 7.0 0.00 0.18 0.18 77 1008.6
20180219183518 63 239 3.0 6.0 0.00 0.18 0.18 76 1008.5
20180219182518 63 218 3.0 6.0 0.00 0.18 0.18 76 1008.5
20180219181600 63 238 2.0 4.0 0.00 0.18 0.18 76 1008.7
20180219180532 63 243 3.0 4.0 0.00 0.18 0.18 75 1008.6
20180219175532 64 254 4.0 7.0 0.00 0.18 0.18 75 1008.9
20180219174531 64 230 3.0 6.0 0.00 0.18 0.18 75 1008.8
20180219173531 63 323 3.0 7.0 0.00 0.18 0.18 76 1008.8
20180219172528 63 254 3.0 4.0 0.00 0.18 0.18 77 1008.8
20180219171530 62 243 4.0 6.0 0.00 0.18 0.18 78 1008.9
20180219170523 62 224 3.0 6.0 0.00 0.18 0.18 78 1008.8
20180219165519 61 306 2.0 4.0 0.00 0.18 0.18 79 1008.8
20180219164516 61 233 4.0 8.0 0.00 0.18 0.18 79 1008.9
20180219163518 61 241 4.0 7.0 0.00 0.18 0.18 79 1008.9
20180219162543 61 223 3.0 6.0 0.00 0.18 0.18 79 1008.9
20180219161515 60 217 4.0 7.0 0.00 0.18 0.18 80 1008.7
20180219160526 60 211 3.0 6.0 0.00 0.18 0.18 80 1008.6
20180219155517 60 216 4.0 7.0 0.00 0.18 0.18 81 1008.7
20180219154529 59 193 3.0 6.0 0.00 0.18 0.18 82 1008.9
20180219153524 59 240 3.0 4.0 0.00 0.18 0.18 82 1008.9
20180219152520 59 245 4.0 5.0 0.00 0.18 0.18 82 1008.9
20180219151520 58 214 3.0 4.0 0.00 0.18 0.18 84 1008.9
20180219150529 58 300 3.0 5.0 0.00 0.18 0.18 84 1009.0
20180219145517 58 245 3.0 8.0 0.00 0.18 0.18 84 1009.0
20180219144520 58 245 2.0 3.0 0.00 0.18 0.18 84 1008.4
20180219143521 58 240 3.0 4.0 0.00 0.18 0.18 84 1008.2
20180219142517 59 256 4.0 8.0 0.00 0.18 0.18 84 1008.1
20180219141532 59 246 3.0 7.0 0.00 0.18 0.18 84 1007.9
20180219140533 59 215 2.0 7.0 0.00 0.18 0.18 84 1007.6
20180219135517 59 257 4.0 6.0 0.00 0.18 0.18 84 1007.4
20180219134532 58 190 3.0 5.0 0.00 0.18 0.18 85 1007.0
20180219133531 58 228 3.0 6.0 0.00 0.18 0.18 85 1007.0
20180219132531 58 205 4.0 8.0 0.00 0.18 0.18 86 1007.0
20180219131524 58 188 3.0 6.0 0.00 0.18 0.18 86 1006.9
20180219130518 57 201 4.0 6.0 0.00 0.18 0.18 87 1006.7
20180219125531 57 291 3.0 6.0 0.00 0.18 0.18 87 1006.7
20180219124526 57 278 3.0 5.0 0.00 0.18 0.18 88 1006.7
20180219123519 57 309 4.0 5.0 0.00 0.18 0.18 88 1006.8
20180219122530 56 255 3.0 4.0 0.00 0.18 0.18 89 1006.9
20180219121533 56 44 3.0 4.0 0.00 0.18 0.18 89 1006.9
20180219120527 55 263 2.0 4.0 0.00 0.18 0.18 89 1007.0
20180219115532 55 263 2.0 4.0 0.00 0.18 0.18 90 1006.9